Погода Нижний Тагил

Погода Нижний Тагил : погода сейчас, прогноз погоды и архив. Всё, что Вы хотите узнать о погоде Нижний Тагил!

Хотите узнать прогноз погоды Нижний Тагил? Тогда Вам сюда: Погода Нижний Тагил

Поиск расширенной информации на нашем сайте:

Полезная информация: антигравийная пленка фото здесь

Другие новости

Новости СМИ2

Главная страница сайта

Новости сайта

02.10.2013

Напоминаем, что на нашем новом сайте вы можете получить высокодетализированные прогнозы погоды по пунктам России, СНГ и мира (включающие важные для авиации метеовеличины, такие как направление и скорость ветра, видимость, явления погоды, количество и форма облачности, нижняя и верхняя граница облачности), а также ознакомиться с разнообразными материалами по авиационной метеорологии и подборкой полезных ссылок на эту тему.

Сайт Метеоцентр.Азия посвящён разработке технологий оптимизации авиаметеорологического обслуживания, включая проектирование и перспективное создание нескольких автоматизированных авиаметеорологических систем:
- система выпуска высокодетальных прогностических карт явлений погоды для нижнего воздушного пространства по России и ближнему зарубежью;
- система верификации прогнозов TAF (выпускаемых синоптиками официальных АМСГ РФ и ближнего зарубежья) и AUTOTAF (выпускаемых сайтом Метеоцентр.Азия) - выявление ошибок, онлайн-сопоставление с фактической погодой METAR, автоматическое внесение коррективов в прогнозы при резком отклонении фактической погоды от прогноза, подсчёт оправдываемости прогнозов по элементам и в целом;
- система обработки, анализа и отображения авиаметеорологической информации для применения провайдерами метеорологической информации.

Рекомендуем: Запчасти крайслер пацифика. Защитная шторка против солнца.

Погода Нижний Тагил - сегодня

Время (UTC), дата Ветер
(°,м/с) 
Видим.   Явления Облачность Т
(°С)
Тd
(°С)
f(%) Тe
(°С)
Pmin
(гПа)
dP
(гПа)
Po
(мм)
O2
(г/м3)
Тmin Tmax R s Состояние
почвы
06 26.03.15 300 (СЗ) 8-13{15}  20000 м  позёмок{ливн. осадки}  3/3 600 м кучево-дожд. 
[Cb cap]
-7.1 -14.5 55 -13  1020  3.3  740  307  -8.7         
09 26.03.15 300 (СЗ) 9-14{14}  20000 м  позёмок  1/1 600 м 
[Cu hum]
-4.6 -17 37 -10  1021.9  2.1  742  305           
12 26.03.15 300 (СЗ) 6-11{14}  20000 м    3/3 600 м 
[Cu hum]
-4 -17.9 33 -8  1023.9  743  305           
15 26.03.15 310 (СЗ) 5{15}  20000 м    1/1 600 м 
[Sc diur, vesp]
-6.4 -17.5 41 -10  1026.9  745  309    -3.6  0.0     
18 26.03.15 300 (СЗ) 20000 м    ясно 
-8.4 -18.4 44 -11  1029.1  1.8  746  312           
21 26.03.15 310 (СЗ) 20000 м    ясно 
-10.1 -19.4 46 -12  1030.7  1.4  747  314           
00 27.03.15 110 (В) 20000 м    ясно 
-17.3 -20.5 76 -17  1032.8  1.1  748  323           
03 27.03.15 170 (Ю) 20000 м    ясно 
-15.4 -19.9 68 -15  1033.5  0.9  749  321  -18.5      сухой снег
50-90% 
06 27.03.15 310 (СЗ) 5-10{10}  20000 м    ясно 
-5.9 -15.2 48 -10  1032.4  0.1  749  310           
09 27.03.15 340 (С) 5{11}  20000 м    4/4 600 м 
[Cu hum]
-3.9 -19 30 -8  1032.1  749  308           
12 27.03.15 350 (С) 7-10{12}  20000 м    5/5 600 м 
[Cu med, cong]
-4.5 -19.8 29 -9  1033.1  0.9  750  309           
15 27.03.15 350 (С) 5{12}  20000 м    8/8 600 м кучево-дожд. 
[Cb cap]
-6.6 -18.4 39 -11  1035.4  751  312    -3.4       
18 27.03.15 040 (СВ) 20000 м    ясно 
-9.9 -17.3 55 -12  1038  753  316           
21 27.03.15 050 (СВ) 20000 м    ясно 
-16.9 -20.1 76 -19  1041  754  326           
00 28.03.15 100 (В) 20000 м    ясно 
-19.3 -22.1 78 -20  1043.2  1.8  756  329           
03 28.03.15 120 (ЮВ) 20000 м    ясно 
-18.3 -21.1 79 -19  1045.3  2.2  757  329  -20.4      сухой снег
50-90% 
06 28.03.15 360 (С) 20000 м    ясно 
-8.4 -20.3 38 -11  1045.6  1.6  758  317           
09 28.03.15 010 (С) 20000 м    1/0 средняя 
[Ac trans]
-5.2 -20.2 30 -7  1044.9  -0.3  758  313           
12 28.03.15 340 (С) 20000 м    3/0 средняя 
[Ac trans]
-4 -19.9 28 -6  1044.9  0.1  758  312           
15 28.03.15 110 (В) 20000 м    ясно 
-8.9 -19.4 42 -9  1045.6  0.1  758  317    -3.8       
18 28.03.15 120 (ЮВ) 20000 м    ясно 
-14 -20 60 -14  1046.9  0.6  759  324           
21 28.03.15 140 (ЮВ) 20000 м    ясно 
-15.8 -20.1 69 -16  1046.5  -0.6  758  326           
00 29.03.15 160 (Ю) 20000 м    ясно 
-16.2 -20.2 71 -16  1047.4  0.8  759  327           
03 29.03.15 190 (Ю) 20000 м    ясно 
-14.1 -18.6 68 -14  1047.5  0.4  759  324  -17.1      сухой снег
50-90% 
06 29.03.15 270 (З) 20000 м    ясно 
-1.6 -14.2 38 -4  1045  -0.9  759  309           
Время (UTC), дата Ветер
(°,м/с) 
Видим.   Явления Облачность Т
(°С)
Тd
(°С)
f(%) Тe
(°С)
Pmin
(гПа)
dP
(гПа)
Po
(мм)
O2
(г/м3)
Тmin Tmax R s Состояние
почвы

Для получения пояснительной информации подведите курсор к названию столбца.

ПОГОДА Нижний Тагил - архив

Всё, что Вы хотите узнать о погоде Нижний Тагил - удобно и подробно!

Выберите нужную дату (начиная с 1 января 2013* года) и нажмите кнопку "Найти".
Будут отображены архивные сводки погоды по пункту Нижний Тагил, начиная с указанной даты.


Отображать данные в формате CSV (для использования в таблицах Excel)


Внимание! Наш архив погоды предназначен исключительно для личного некоммерческого использования в познавательных целях. Если Вам необходимы официальные справки о состоянии погоды (для производственных, юридических, коммерческих и т.п. целей), обращайтесь в органы Росгидромета.

*Примечание: данная дата относится к архиву по метеостанциям СССР (Россия, СНГ, Балтия).
Архив по метеостанциям Зарубежной Европы и Азии (кроме Китая) хранится 10 дней, по другим регионам земного шара (Китай, Африка, Америка, Австралия, Океания) - 1 день.

Нижний Тагил - район местоположения метеостанции


Название, широта, долгота, высота метеостанции:
Нижний Тагил 57.9°ш. 60.1°д. 260 м над ур. моря [Российская Федерация]

Дополнительная информация

В oтличие oт бoльшинства пoгoдных сайтoв мы публикуем пoдрoбную метеoинфoрмацию в детальнoм прoфессиoнальнoм фoрмате.

Характеристики температуры и влажнoсти вoздуха измеряются на высoте 2 м в тени вдали oт зданий и деревьев.
Скoрoсть ветра измеряется на высoте 10 м (на урoвне рoста челoвека скoрoсть ветра ниже в 1.5-2 раза). Если метеoстанция нахoдится в гoрoде или в лесу, тo скoрoсть ветра занижена на 2-4 м/с пo сравнению с oткрытым местoм. Скoрoсть ветра над акватoриями крупных рек и oзёр, а также на вершинах хoлмoв на 2-5 м/с выше, чем в oбычных услoвиях.
Атмoсфернoе давление в разных тoчках местнoсти мoжет значительнo oтличаться oт давления на метеoстанции, в зависимoсти oт услoвий рельефа (при пoдъёме на 10 м давление пoнижается примернo на 1 мм рт.ст.).